Date String (YYYY-MM-DD hh:mm:ss) UTC,Instrument flags,Ambient pressure (hPa),Sample flow (lpm),Bypass flow (lpm),Sample temperature (°C),Ambient temperature (°C),ASC tube jacket temperature (°C),LED temperature (°C),Box temperature (°C),Sample RH (%),Span deviation,Mass concentration (μg/m³),Mass concentration (μg/m³),Mass concentration (μg/m³)
DateTimeUTC,F1_M11,P_M11,Q1_M11,Q2_M11,T1_M11,T2_M11,T3_M11,T4_M11,T5_M11,U1_M11,ZSPAN_M11,X0_M11,X2_M11,X1_M11
2022-11-17 14:00:00,,0832.8,4.98,0.00,22.4,21.4,00.0,31.3,24.3,12.1,0000.0,0016.32,0004.22,0003.35
2022-11-17 14:01:00,,0832.8,5.00,0.00,22.4,21.2,00.0,31.3,24.2,12.1,0000.0,0015.96,0004.11,0003.20
2022-11-17 14:02:00,,0832.8,5.00,0.00,22.4,21.1,00.0,31.3,24.2,12.0,0000.0,0015.86,0003.95,0003.00
2022-11-17 14:03:00,,0832.9,5.01,0.00,22.4,21.1,00.0,31.3,24.2,12.1,0000.0,0015.57,0003.82,0002.74
2022-11-17 14:04:00,,0832.8,5.00,0.00,22.4,21.0,00.0,31.3,24.1,12.1,0000.0,0015.64,0003.72,0002.48
2022-11-17 14:05:00,,0832.8,5.00,0.00,22.4,21.0,00.0,31.3,24.1,12.1,0000.0,0015.65,0003.57,0002.25
2022-11-17 14:06:00,,0832.8,5.00,0.00,22.4,21.0,00.0,31.3,24.1,12.1,0000.0,0014.06,0003.42,0002.02
2022-11-17 14:07:00,,0832.9,5.01,0.00,22.4,21.1,00.0,31.3,24.1,12.1,0000.0,0013.10,0003.30,0001.78
2022-11-17 14:08:00,,0833.0,5.00,0.00,22.4,22.0,00.0,31.2,24.3,12.1,0000.0,0013.53,0003.20,0001.59
2022-11-17 14:09:00,,0833.1,4.99,0.00,22.5,22.6,00.0,31.3,24.5,12.0,0000.0,0013.18,0003.14,0001.44
2022-11-17 14:10:00,,0833.1,4.99,0.00,22.6,22.2,00.0,31.3,24.5,12.0,0000.0,0012.45,0003.11,0001.38
2022-11-17 14:11:00,,0833.0,5.01,0.00,22.5,21.9,00.0,31.3,24.4,12.1,0000.0,0011.65,0003.01,0001.37
2022-11-17 14:12:00,,0833.1,5.00,0.00,22.5,21.6,00.0,31.4,24.3,12.1,0000.0,0011.87,0002.92,0001.36
2022-11-17 14:13:00,,0833.0,4.99,0.00,22.5,21.4,00.0,31.4,24.3,12.1,0000.0,0012.03,0002.90,0001.38
2022-11-17 14:14:00,,0833.0,4.99,0.00,22.5,21.2,00.0,31.4,24.3,12.0,0000.0,0013.34,0002.87,0001.40
2022-11-17 14:15:00,,0833.1,4.99,0.00,22.4,21.1,00.0,31.4,24.3,12.0,0000.0,0013.59,0002.80,0001.41
2022-11-17 14:16:00,,0833.0,5.01,0.00,22.4,21.0,00.0,31.4,24.2,12.0,0000.0,0013.89,0002.78,0001.43
2022-11-17 14:17:00,,0833.1,5.01,0.00,22.4,20.9,00.0,31.4,24.1,12.0,0000.0,0014.46,0002.79,0001.45
2022-11-17 14:18:00,,0833.0,5.00,0.00,22.4,20.8,00.0,31.4,24.1,12.1,0000.0,0016.18,0002.83,0001.49
2022-11-17 14:19:00,,0833.1,5.01,0.00,22.3,20.7,00.0,31.3,24.1,12.1,0000.0,0016.41,0002.84,0001.53
2022-11-17 14:20:00,,0833.1,5.00,0.00,22.3,20.6,00.0,31.3,24.0,12.1,0000.0,0015.13,0002.80,0001.57
2022-11-17 14:21:00,,0833.1,5.01,0.00,22.3,21.0,00.0,31.3,24.1,12.0,0000.0,0015.51,0002.79,0001.60
2022-11-17 14:22:00,,0833.1,4.99,0.00,22.4,21.9,00.0,31.2,24.3,11.9,0000.0,0015.14,0002.79,0001.61
2022-11-17 14:23:00,,0833.1,4.99,0.00,22.5,22.4,00.0,31.3,24.4,11.8,0000.0,0014.49,0002.77,0001.62
2022-11-17 14:24:00,,0833.1,5.00,0.00,22.5,22.1,00.0,31.3,24.4,11.7,0000.0,0014.75,0002.78,0001.66
2022-11-17 14:25:00,,0833.2,5.00,0.00,22.5,21.7,00.0,31.3,24.3,11.7,0000.0,0013.24,0002.76,0001.67
2022-11-17 14:26:00,,0833.1,5.00,0.00,22.4,21.4,00.0,31.3,24.2,11.7,0000.0,0012.82,0002.76,0001.70
2022-11-17 14:27:00,,0833.1,5.02,0.00,22.4,21.2,00.0,31.3,24.1,11.7,0000.0,0013.49,0002.79,0001.74
2022-11-17 14:28:00,,0833.1,5.00,0.00,22.3,21.0,00.0,31.3,24.1,11.7,0000.0,0013.13,0002.74,0001.77
2022-11-17 14:29:00,,0833.3,4.99,0.00,22.3,20.8,00.0,31.3,24.0,11.8,0000.0,0011.79,0002.73,0001.79
2022-11-17 14:30:00,,0833.3,5.00,0.00,22.3,20.7,00.0,31.3,24.0,11.9,0000.0,0011.00,0002.67,0001.81
2022-11-17 14:31:00,,0833.4,5.01,0.00,22.2,20.6,00.0,31.3,23.9,11.9,0000.0,0011.56,0002.68,0001.81
2022-11-17 14:32:00,,0833.4,5.00,0.00,22.2,20.8,00.0,31.3,24.0,11.9,0000.0,0011.18,0002.66,0001.81
2022-11-17 14:33:00,,0833.4,5.01,0.00,22.3,21.7,00.0,31.2,24.2,11.8,0000.0,0011.48,0002.73,0001.81
2022-11-17 14:34:00,,0833.4,4.98,0.00,22.4,22.4,00.0,31.2,24.4,11.8,0000.0,0011.94,0002.77,0001.81
2022-11-17 14:35:00,,0833.5,5.00,0.00,22.4,22.1,00.0,31.3,24.3,11.8,0000.0,0011.59,0002.79,0001.78
2022-11-17 14:36:00,,0833.4,5.01,0.00,22.4,21.7,00.0,31.3,24.3,11.8,0000.0,0012.08,0002.78,0001.76
2022-11-17 14:37:00,,0833.4,5.00,0.00,22.4,21.4,00.0,31.3,24.2,11.9,0000.0,0012.15,0002.72,0001.74
2022-11-17 14:38:00,,0833.4,5.00,0.00,22.3,21.2,00.0,31.3,24.1,11.9,0000.0,0010.97,0002.71,0001.71
2022-11-17 14:39:00,,0833.4,5.00,0.00,22.3,21.0,00.0,31.3,24.0,12.0,0000.0,0010.90,0002.72,0001.67
2022-11-17 14:40:00,,0833.4,5.01,0.00,22.3,20.9,00.0,31.3,24.0,12.0,0000.0,0012.15,0002.72,0001.64
2022-11-17 14:41:00,,0833.4,5.00,0.00,22.3,20.8,00.0,31.3,24.0,12.0,0000.0,0011.96,0002.73,0001.61
2022-11-17 14:42:00,,0833.4,5.01,0.00,22.3,20.7,00.0,31.3,24.0,12.1,0000.0,0012.22,0002.70,0001.60
2022-11-17 14:43:00,,0833.5,5.00,0.00,22.2,20.6,00.0,31.3,24.0,12.1,0000.0,0011.96,0002.69,0001.61
2022-11-17 14:44:00,,0833.5,4.99,0.00,22.2,20.5,00.0,31.3,23.9,12.1,0000.0,0011.57,0002.58,0001.61
2022-11-17 14:45:00,,0833.5,5.00,0.00,22.2,20.9,00.0,31.2,23.9,12.1,0000.0,0011.93,0002.51,0001.61
2022-11-17 14:46:00,,0833.5,5.00,0.00,22.3,21.8,00.0,31.1,24.2,12.1,0000.0,0011.50,0002.43,0001.61
2022-11-17 14:47:00,,0833.5,4.99,0.00,22.4,22.3,00.0,31.2,24.3,12.0,0000.0,0011.52,0002.52,0001.62
2022-11-17 14:48:00,,0833.5,5.02,0.00,22.4,22.0,00.0,31.2,24.3,11.9,0000.0,0011.09,0002.52,0001.61
2022-11-17 14:49:00,,0833.5,5.00,0.00,22.4,21.6,00.0,31.3,24.2,11.9,0000.0,0010.85,0002.47,0001.61
2022-11-17 14:50:00,,0833.5,5.00,0.00,22.3,21.3,00.0,31.3,24.1,11.9,0000.0,0010.51,0002.36,0001.61
2022-11-17 14:51:00,,0833.4,5.01,0.00,22.3,21.0,00.0,31.3,24.0,11.9,0000.0,0009.26,0002.38,0001.62
2022-11-17 14:52:00,,0833.5,5.00,0.00,22.2,20.8,00.0,31.2,24.0,11.9,0000.0,0009.12,0002.41,0001.65
2022-11-17 14:53:00,,0833.4,5.00,0.00,22.2,20.7,00.0,31.2,23.9,11.9,0000.0,0008.28,0002.46,0001.66
2022-11-17 14:54:00,,0833.4,5.00,0.00,22.2,20.5,00.0,31.2,23.8,12.0,0000.0,0008.62,0002.47,0001.67
2022-11-17 14:55:00,,0833.4,5.00,0.00,22.2,20.7,00.0,31.2,23.9,12.0,0000.0,0008.93,0002.51,0001.69
2022-11-17 14:56:00,,0833.4,5.02,0.00,22.2,21.7,00.0,31.1,24.1,11.9,0000.0,0008.15,0002.56,0001.71
2022-11-17 14:57:00,,0833.5,5.00,0.00,22.4,22.4,00.0,31.1,24.3,11.9,0000.0,0008.51,0002.59,0001.74
2022-11-17 14:58:00,,0833.5,4.99,0.00,22.4,22.0,00.0,31.2,24.3,11.9,0000.0,0008.04,0002.59,0001.77
2022-11-17 14:59:00,,0833.5,5.00,0.00,22.4,21.6,00.0,31.2,24.2,11.9,0000.0,0008.57,0002.59,0001.81
